Regional Weather Roundup
Issued by NWS

Home | Current Version | Previous Version | Text Only | Print | Product List | Glossary On
Versions: 1 2 3 4 5 6 7 8 9 10 11 12 13 14 15 16 17 18 19 20 21 22 23 24 25 26 27 28 29 30 31 32 33 34 35 36 37 38 39 40 41 42 43 44 45 46 47 48 49 50
000
ASUS44 KBMX 101810
RWRAL

ALABAMA REGIONAL WEATHER ROUNDUP
NATIONAL WEATHER SERVICE BIRMINGHAM AL
1200 PM CST WED FEB 10 2016

NOTE: "FAIR" INDICATES FEW OR NO CLOUDS BELOW 12,000 FEET
WITH NO SIGNIFICANT WEATHER AND/OR OBSTRUCTIONS TO VISIBILITY.

THE REMARK "TC" DENOTES TEMPERATURE IN DEGREES CELSIUS.

ALZ001>011-014-016>018-020-101900-
NORTH ALABAMA

CITY           SKY/WX    TMP DP  RH WIND       PRES   REMARKS
MUSCLE SHOALS  SUNNY     33   7  33 W13G20    30.25F WCI  24
6HR MIN TEMP:  19; 6HR MAX TEMP:  33;

HUNTSVILLE     MOSUNNY   32   9  38 W14G21    30.21F WCI  22
6HR MIN TEMP:  21; 6HR MAX TEMP:  32;

DECATUR        SUNNY     30   9  41 W10G20    30.23F WCI  21
6HR MIN TEMP:  20; 6HR MAX TEMP:  30;

HALEYVILLE     FAIR      32  10  40 W12       30.23F WCI  23
6HR MIN TEMP:  19; 6HR MAX TEMP:  32;

GADSDEN        SUNNY     34  13  41 W14G21    30.22S WCI  25
6HR MIN TEMP:  18; 6HR MAX TEMP:  34; 6HR PCP: TRACE;

$$

ALZ012-013-022-023-030>036-040>044-101900-
WEST CENTRAL ALABAMA

CITY           SKY/WX    TMP DP  RH WIND       PRES   REMARKS
TUSCALOOSA     SUNNY     39   8  27 W9G17     30.28F WCI  33
6HR MIN TEMP:  21; 6HR MAX TEMP:  39;

$$

ALZ015-024>027-033>036-040>044-101900-
CENTRAL ALABAMA

CITY           SKY/WX    TMP DP  RH WIND       PRES   REMARKS
BIRMINGHAM     SUNNY     36   8  31 NW14      30.24F WCI  27
6HR MIN TEMP:  23; 6HR MAX TEMP:  36;

MONTGOMERY     SUNNY     42  11  28 W16G23    30.26F
6HR MIN TEMP:  24; 6HR MAX TEMP:  42;

SHELBY CO ARPT SUNNY     37  13  37 NW9G17    30.23F WCI  30
6HR MIN TEMP:  23; 6HR MAX TEMP:  37;

MAXWELL AFB    SUNNY     42   9  26 W12G20    30.24F
6HR MIN TEMP:  26; 6HR MAX TEMP:  42;

GREENVILLE     FAIR      41   7  24 W10       30.24F
6HR MIN TEMP:  26; 6HR MAX TEMP:  41;

$$

ALZ019-021-028-029-037-038-045>048-101900-
EAST CENTRAL ALABAMA

CITY           SKY/WX    TMP DP  RH WIND       PRES   REMARKS
ANNISTON       SUNNY     36   6  28 W20G26    30.20F WCI  25
6HR MIN TEMP:  21; 6HR MAX TEMP:  37;

ALEXANDER CITY SUNNY     36  16  44 W9G20     30.20F WCI  29
6HR MIN TEMP:  21; 6HR MAX TEMP:  36;

AUBURN         SUNNY     38  11  32 W17G23    30.19F WCI  28
6HR MIN TEMP:  23; 6HR MAX TEMP:  38;

$$

ALZ051>064-101900-
SOUTHWEST ALABAMA

CITY           SKY/WX    TMP DP  RH WIND       PRES   REMARKS
MOBILE         SUNNY     47  15  27 N8        30.31F
6HR MIN TEMP:  26; 6HR MAX TEMP:  48;

BROOKLEY FIELD SUNNY     50  15  24 N12G17    30.33F
6HR MIN TEMP:  29; 6HR MAX TEMP:  50;

EVERGREEN      SUNNY     46  11  24 W9        30.28F
6HR MIN TEMP:  24; 6HR MAX TEMP:  46; 6HR PCP: TRACE;

$$

ALZ049-050-065>069-101900-
SOUTHEAST ALABAMA

CITY           SKY/WX    TMP DP  RH WIND       PRES   REMARKS
DOTHAN         SUNNY     43  10  26 NW17G26   30.26F
6HR MIN TEMP:  26; 6HR MAX TEMP:  43;

OZARK          SUNNY     43  11  26 NW15G22   30.23F
6HR MIN TEMP:  24; 6HR MAX TEMP:  43;

TROY           SUNNY     43  10  26 NW10G23   30.25F
6HR MIN TEMP:  25; 6HR MAX TEMP:  44;

EUFAULA        FAIR      44  15  31 W8G16     30.21F
6HR MIN TEMP:  27; 6HR MAX TEMP:  44;

$$



USA.gov is the U.S. government's official web portal to all federal, state and local government web resources and services.